User: anonymous   Login
Location: Mentone
(34.5413°N, 85.5351°W)
Time: 02:05:26
(UTC-05:00)
Language:

ADEOS Rocket - Orbit

View from above orbital plane
View from above orbital plane
View from above satellite
View from above satellite

Ground track
Ground track

The orbit data is extracted from the following two-line orbital elements,

1 24279U 96046C   15186.72706769 -.00000012  00000-0  32513-4 0  9996
2 24279 098.6969 210.7056 0299259 306.7932 186.3449 13.47027864928321
Epoch (UTC): 05 July 2015 17:26:58
Eccentricity: 0.0299259
inclination: 98.6969°
perigee height: 860 km
apogee height: 1306 km
right ascension of ascending node: 210.7056°
argument of perigee: 306.7932°
revolutions per day: 13.47027864
mean anomaly at epoch: 186.3449°
orbit number at epoch: 92832

The dashed part of the orbit path shows where the satellite is in the earth's shadow,  

DLR